Zurück zum Katalog

RADIO 5

AktivAmateurfunkPO
NORAD 12999·PAYLOAD·🇷🇺 Russia

Gestartet Dec 17, 1981 von Plesetsk Cosmodrome

Loading…

Nächste Überflüge (nächste 24 Stunden)

TLE

AktuellSource: Space-Track

Epoche: Sep 14, 2026, 08:47 UTC

1 12999U 81120C   26257.36598844  .00000079  00000-0  80498-3 0  9999
2 12999  82.9619  36.9364 0015656 131.9445 255.6297 12.05315361968329

Verfolge RADIO 5 in Echtzeit mit AllMySat

Download on the App Store